Wind_Speed
29 28 27 27 26 26 25 23 22 23 24 26 27 26 25 25 24 24 23 23 22 22 22 21 20 18 16 15 14 14 13 13 12 11 11 10 10 10 10 10 9 9 10 10 10 10 9 9 8 8 8 9 9 9 9 9 9 8 8 8 7 7 9 9 9 9 7 5 6 7 8 8 7 11 12 9 11 15 15 15 17 16 12 13 17
30 30 29 28 28 26 26 25 24 23 23 25 26 26 26 26 26 25 25 24 24 24 23 22 22 20 19 18 17 17 16 15 14 13 12 11 10 9 10 10 10 10 11 11 11 11 11 10 10 10 10 10 11 10 10 9 9 9 9 9 8 8 9 11 10 10 9 8 7 7 9 9 8 10 12 11 12 15 15 14 13 15 14 10 14
29 30 30 29 29 28 27 26 26 25 24 24 24 25 26 27 27 27 26 26 25 25 25 24 23 22 21 21 20 20 19 18 16 16 14 12 11 10 11 10 10 10 11 11 12 12 13 12 12 11 11 11 12 12 11 11 11 11 11 10 10 9 9 11 12 11 10 10 9 8 8 10 9 10 11 12 14 14 15 14 12 14 16 10 11
26 28 30 29 29 29 28 28 27 27 26 25 24 24 25 26 27 28 27 27 27 27 26 26 26 24 22 22 22 22 22 20 19 18 17 15 13 12 12 12 11 11 11 12 13 13 14 14 14 13 12 13 14 13 13 13 13 13 12 12 12 11 11 12 13 13 12 12 12 10 10 11 11 11 11 12 14 14 15 16 12 14 15 9 10
24 26 28 29 29 30 29 29 29 29 28 27 26 24 24 25 26 28 28 28 28 28 28 28 28 27 25 24 23 23 23 22 21 20 19 18 17 15 15 14 14 13 13 13 14 14 15 16 15 14 14 15 16 15 14 14 14 14 13 12 12 12 13 13 14 14 14 14 14 14 13 13 12 12 12 11 13 14 15 16 14 15 15 8 9
24 25 26 27 28 30 30 30 31 30 30 29 28 26 25 25 25 27 28 29 29 29 29 29 29 29 27 26 25 25 25 24 24 23 22 21 20 19 18 17 16 16 15 15 15 15 16 17 17 17 17 17 17 16 16 16 16 15 15 15 14 14 15 15 15 16 16 15 16 16 15 15 14 14 14 13 13 14 16 17 14 15 17 11 9
25 26 26 26 28 30 30 30 31 31 31 30 29 28 27 26 26 26 26 28 29 30 30 30 30 29 28 27 27 27 26 26 26 25 24 23 23 22 20 20 19 19 18 17 17 16 17 17 18 18 19 20 20 19 18 18 17 17 17 17 17 16 15 15 15 16 16 16 16 15 15 15 15 15 15 15 15 14 15 16 14 13 16 16 12
25 27 27 27 28 29 28 28 30 31 31 31 30 29 29 28 28 27 27 27 27 28 29 29 29 30 29 28 28 28 28 27 27 27 26 25 25 25 23 22 21 21 21 20 19 18 18 18 18 19 20 21 21 21 20 19 18 17 17 18 19 18 17 15 15 16 16 15 15 15 16 17 17 17 16 15 14 12 13 15 16 14 15 16 14
22 25 27 28 28 28 28 28 29 31 31 32 31 31 31 30 30 30 29 28 27 27 28 28 28 29 30 30 30 30 30 29 29 28 28 27 27 27 26 25 24 24 24 23 21 21 20 19 19 19 21 23 23 22 21 21 21 19 18 20 20 20 20 19 18 17 17 17 16 16 17 17 16 15 13 11 10 11 12 15 17 15 14 14 14
20 22 26 28 29 29 29 30 30 31 32 31 30 30 31 32 32 32 31 30 29 28 28 28 28 28 29 30 31 31 32 33 32 30 29 29 28 28 28 28 27 26 26 26 25 24 22 22 21 21 24 26 25 23 22 22 23 22 21 21 21 20 21 21 20 19 18 18 17 15 15 15 13 12 12 11 11 11 12 13 14 14 14 15 14
19 21 24 27 29 30 30 30 31 32 32 31 30 30 30 32 33 32 32 31 31 30 30 30 29 29 29 30 30 31 32 34 34 33 31 30 29 29 29 29 29 29 28 28 28 27 25 24 23 24 27 29 28 26 25 24 24 24 23 23 22 22 21 21 20 19 18 18 17 15 15 15 14 13 13 13 12 11 11 12 15 16 16 16 14
16 19 22 24 27 30 30 30 30 31 32 32 31 31 31 32 33 33 32 32 31 31 30 30 30 30 30 30 30 30 31 33 35 34 33 32 31 31 31 31 31 31 30 30 30 29 28 27 25 23 24 28 29 28 27 26 26 26 25 24 24 24 24 23 22 21 20 20 18 17 16 16 16 16 15 14 13 13 14 15 16 17 18 18 16
15 17 19 21 24 27 29 30 30 30 30 31 31 32 33 32 32 32 32 32 32 32 31 30 30 30 31 31 31 31 31 33 35 35 34 33 33 33 33 33 32 31 31 31 31 31 30 30 28 26 24 25 29 30 28 28 27 27 27 27 27 27 26 26 25 24 23 23 22 22 20 20 20 19 18 18 18 18 18 17 16 17 18 19 18
15 17 18 19 22 25 26 28 29 29 29 30 30 32 32 32 31 31 31 33 34 33 31 31 31 31 31 32 33 33 33 34 35 35 34 34 34 34 34 34 34 33 33 33 33 33 32 32 32 31 29 29 31 31 30 29 28 28 28 29 29 29 28 27 27 26 26 26 26 26 25 24 23 22 21 22 22 22 21 19 18 19 19 20 21
13 16 18 18 19 22 23 25 28 28 28 29 29 30 30 30 30 31 31 32 33 33 32 32 32 32 32 32 33 34 34 35 35 35 34 33 33 33 33 34 35 35 35 35 35 35 35 34 34 33 32 32 33 32 30 29 29 29 29 29 29 30 30 30 29 28 27 27 28 27 26 25 25 24 24 23 22 21 20 20 20 20 21 22 22
12 14 17 18 17 18 21 23 25 27 28 29 29 28 28 28 28 29 30 31 31 32 32 33 33 33 33 33 34 35 35 35 35 34 33 32 30 30 32 33 35 36 36 37 37 37 36 36 36 35 34 33 33 32 30 29 29 29 29 30 29 29 30 30 30 29 28 28 28 28 27 26 26 26 25 24 23 23 22 22 21 21 21 22 22
9 12 16 19 19 17 18 21 23 25 27 29 30 29 27 27 27 28 30 30 30 30 31 32 33 33 34 34 35 35 35 35 35 34 33 31 30 29 30 32 34 36 37 38 38 39 39 38 37 36 35 34 34 33 31 29 29 30 30 30 30 29 28 28 29 30 29 28 27 28 28 28 28 28 27 26 25 25 25 26 24 22 20 20 21
17 12 12 19 21 20 19 19 21 23 24 25 28 29 29 28 28 28 30 30 30 29 29 29 30 31 33 34 34 35 35 35 35 35 34 32 31 30 30 31 33 35 37 38 39 39 40 40 39 37 36 35 35 34 31 30 30 31 31 31 31 31 29 26 25 28 30 30 29 29 29 30 29 28 28 28 27 26 27 28 26 22 19 19 20
23 20 14 14 18 22 22 21 20 22 23 24 25 26 27 29 29 29 29 30 30 29 28 28 28 29 30 31 32 33 34 34 35 35 35 33 32 31 31 31 33 35 36 38 39 40 41 41 40 39 37 36 35 34 33 31 31 32 32 32 32 32 31 27 24 26 28 29 29 29 30 30 29 29 29 28 28 28 29 29 28 24 23 22 20
22 24 21 16 14 17 21 24 23 20 20 23 25 24 23 25 26 27 28 28 28 28 28 28 28 28 29 28 29 30 32 33 35 36 36 34 33 33 33 34 35 36 37 38 39 40 41 42 41 40 38 36 36 35 34 32 32 32 32 33 34 33 32 28 26 27 27 25 25 26 27 28 29 29 30 30 30 30 30 30 29 27 26 24 22
18 22 23 21 17 15 18 24 28 25 21 21 23 23 22 22 22 24 25 25 26 27 26 27 28 28 28 28 28 28 29 30 31 33 35 35 34 33 34 36 37 36 37 39 40 41 41 42 42 41 38 36 35 35 35 33 32 32 33 35 35 34 33 30 28 27 27 24 24 25 25 27 29 29 29 29 30 31 31 30 30 28 28 26 23
15 19 23 22 19 17 17 20 25 26 25 24 23 22 22 23 22 22 23 24 26 27 26 25 27 27 27 27 28 28 29 29 30 31 33 33 33 33 33 35 36 36 37 38 39 41 42 42 42 41 39 37 35 34 35 33 32 33 34 35 34 33 33 32 29 28 28 26 25 26 27 27 28 28 27 27 27 28 28 29 29 28 28 28 26
13 16 20 21 20 18 18 18 19 20 23 25 25 23 22 23 23 24 25 26 28 28 26 25 26 25 24 26 28 28 28 29 31 33 34 32 30 30 31 33 34 35 36 34 32 34 38 40 41 42 40 37 35 33 33 33 33 34 34 33 33 32 31 31 29 29 29 28 27 27 27 26 25 25 26 27 26 25 24 25 27 27 27 27 28
11 12 15 18 20 18 17 19 20 19 19 20 23 23 22 22 24 24 25 27 29 30 28 28 27 24 22 23 26 27 27 28 29 32 34 32 29 29 29 30 31 33 35 33 28 27 29 33 38 42 40 38 36 34 32 32 33 33 33 32 31 30 30 29 29 30 30 29 28 29 30 30 29 28 28 27 26 24 24 25 26 26 25 25 26
10 10 12 15 19 20 19 17 20 22 20 17 17 18 19 22 25 25 25 26 28 31 32 31 28 26 23 22 24 25 26 27 27 28 31 32 31 30 30 29 29 30 32 33 30 28 27 28 33 39 40 38 37 35 33 33 33 33 33 31 29 29 30 31 31 31 31 29 28 29 31 31 32 31 29 26 24 24 24 25 25 25 24 24 24
12 11 12 14 17 20 23 21 20 21 22 21 18 15 15 19 22 23 25 27 28 30 32 31 29 26 24 23 24 26 27 28 26 26 28 30 30 30 30 28 27 28 29 30 30 30 30 30 32 36 38 37 37 36 35 34 34 34 33 31 30 31 33 34 34 34 33 31 29 30 31 30 28 28 26 23 23 24 25 25 25 25 25 24 24
17 14 13 14 16 20 24 24 22 20 20 22 21 18 18 19 19 19 21 25 28 29 30 29 27 25 24 25 26 26 27 27 27 26 27 27 27 29 30 28 26 27 28 29 28 28 30 31 31 33 34 34 34 34 34 34 34 35 34 34 34 34 35 36 36 36 36 35 33 32 32 29 27 26 25 24 24 25 26 26 26 26 25 24 24
20 17 16 15 15 17 21 24 25 24 22 22 24 23 21 22 22 20 20 21 23 26 28 30 30 27 26 27 28 27 26 26 27 27 27 25 25 27 29 28 27 27 28 28 27 27 28 28 30 31 32 33 34 34 34 35 36 37 38 37 37 37 37 37 38 38 38 37 36 35 33 32 30 29 27 26 26 26 25 25 26 27 26 25 26
22 20 19 18 16 15 16 21 27 28 25 24 24 25 25 25 25 26 25 22 20 20 24 30 33 29 26 27 29 29 29 29 28 27 26 26 26 25 24 24 24 23 24 24 24 26 28 29 30 29 28 29 31 31 31 32 35 37 39 40 40 40 39 40 41 41 41 40 38 37 36 35 34 31 29 29 29 28 27 27 28 29 28 27 26
25 22 20 20 21 18 16 18 24 28 27 26 26 27 27 27 27 28 29 29 29 27 27 30 32 29 27 28 29 30 32 32 31 27 25 27 27 23 20 19 18 17 17 17 18 23 27 29 30 27 24 23 26 27 27 28 30 33 34 36 40 42 42 43 43 42 42 42 42 41 39 38 37 34 33 33 32 31 30 29 29 30 30 28 26
26 25 22 21 23 23 19 16 19 25 28 29 30 32 32 30 29 28 28 29 33 34 33 32 31 28 29 31 33 34 33 32 30 27 24 24 24 21 19 18 17 15 14 15 17 20 24 25 25 24 22 23 25 26 27 28 29 29 28 29 33 38 41 44 44 43 43 43 43 42 41 40 40 38 37 37 36 34 33 31 30 31 32 31 29
24 25 24 23 23 25 23 18 17 22 28 31 33 35 36 36 34 31 28 27 29 33 35 35 33 30 30 34 39 40 40 37 36 33 30 27 25 23 21 19 17 16 17 18 19 22 23 23 22 21 22 24 25 26 28 29 28 28 27 27 29 31 34 37 40 42 44 44 43 43 43 42 41 41 40 39 39 37 35 35 35 36 36 35 35
24 24 24 24 24 26 27 24 21 22 26 32 35 36 36 37 38 35 32 28 27 28 29 30 31 30 30 33 37 41 42 43 41 39 35 33 29 25 22 20 18 19 21 22 23 24 24 23 22 21 23 24 25 26 28 30 29 28 28 28 28 29 28 29 31 35 39 42 43 43 43 42 42 42 41 40 38 38 39 39 38 38 38 38 37
24 24 23 23 24 25 26 27 27 25 25 29 33 33 34 35 35 36 35 33 30 28 25 24 24 26 28 31 33 35 37 38 37 34 32 31 29 26 24 23 22 23 25 25 26 26 26 23 21 21 22 23 24 25 28 30 30 29 29 29 30 30 29 29 29 31 33 36 39 42 42 42 41 40 40 38 35 36 40 40 37 37 40 40 39
24 25 24 22 23 24 25 26 29 28 27 27 28 29 32 33 33 33 34 34 33 31 28 25 22 22 25 28 28 28 29 29 29 29 29 28 27 26 27 28 28 27 28 28 28 29 28 25 22 21 22 24 24 25 27 29 28 28 29 30 29 30 32 32 33 34 32 31 34 37 40 42 41 39 39 37 31 30 36 37 36 37 40 40 38
23 23 22 22 22 24 24 25 28 29 28 27 26 27 31 32 31 31 33 33 32 31 29 27 25 23 24 25 25 25 25 24 23 23 26 27 27 27 28 30 31 30 29 29 30 31 31 29 26 23 23 25 27 27 29 30 30 30 31 31 30 31 34 35 35 35 34 32 31 32 34 37 38 38 40 36 28 26 30 30 30 34 38 37 35
23 23 22 21 22 24 24 24 26 27 28 28 26 26 28 28 26 27 31 32 32 31 30 28 26 24 22 22 23 23 23 24 24 22 22 23 26 28 29 31 31 31 30 30 31 32 33 33 31 26 25 26 28 28 29 31 31 30 30 30 29 30 34 36 36 37 37 36 33 30 31 33 32 34 40 38 27 24 26 24 23 28 34 35 34
25 26 25 24 23 24 24 24 25 26 27 29 27 24 24 25 23 24 27 30 30 31 30 27 26 24 21 19 20 22 22 23 25 25 24 23 24 26 28 29 31 32 33 32 30 30 32 33 31 28 26 26 27 27 27 28 28 28 28 28 28 29 32 35 38 40 41 41 37 33 34 37 32 30 36 37 28 23 26 28 26 27 32 35 35
24 25 26 25 24 24 24 24 25 25 26 28 28 26 24 24 23 22 24 27 28 29 29 27 26 25 21 17 16 19 20 20 21 22 24 25 25 26 28 28 29 30 32 31 29 27 28 28 27 26 26 26 26 27 27 27 26 26 27 27 27 28 30 33 36 40 44 46 45 40 38 39 36 33 36 38 32 26 28 32 34 34 35 37 39
21 22 24 25 24 24 23 23 24 25 25 26 27 27 26 25 24 22 23 25 27 28 28 28 27 25 23 20 18 18 18 18 18 18 19 22 24 26 28 30 31 32 33 32 30 29 28 27 24 23 23 24 24 24 25 26 26 27 28 28 28 30 30 30 33 36 38 41 44 43 38 35 33 32 35 38 37 33 31 34 36 37 38 38 39
18 19 21 23 24 23 23 23 23 24 25 25 25 26 26 26 25 24 24 26 28 28 29 29 29 27 27 26 24 22 22 24 23 21 20 21 22 23 25 27 29 31 32 32 32 31 32 31 29 27 26 25 24 24 25 26 27 28 29 29 30 32 33 33 35 36 35 36 39 41 38 35 32 31 32 36 37 36 35 35 36 38 38 38 36
16 17 18 19 19 18 19 21 22 23 25 25 25 25 25 25 26 26 25 25 27 29 30 30 31 31 30 28 26 24 25 26 26 24 21 21 22 22 24 25 25 26 27 28 29 29 30 30 31 31 30 29 28 26 25 26 28 29 30 31 33 35 36 36 37 38 38 40 40 39 37 36 37 37 37 37 36 36 36 36 36 38 39 38 35
14 16 16 16 16 16 16 18 21 22 24 25 25 25 25 25 25 26 26 25 26 28 30 31 32 33 32 30 27 26 25 26 27 26 25 24 23 24 26 26 27 28 30 32 32 32 32 31 32 32 33 33 31 29 27 27 29 31 32 34 37 37 36 36 38 39 40 42 42 40 37 38 40 43 42 40 40 40 39 39 38 38 38 38 35
13 14 15 16 17 17 16 18 20 22 22 22 24 24 23 24 24 25 26 26 26 27 29 31 32 33 34 32 29 27 26 26 26 28 28 28 28 28 28 29 29 30 32 33 34 35 35 35 36 36 36 36 35 34 33 33 33 33 33 35 37 38 38 39 41 43 43 42 42 41 40 41 42 43 43 43 43 42 42 42 40 38 36 36 33
12 12 14 16 17 17 16 17 20 20 20 20 20 20 21 21 22 23 24 25 26 26 27 29 30 31 32 32 29 26 25 24 25 26 28 30 30 31 31 32 32 32 33 33 35 36 36 37 37 37 37 37 37 37 37 37 37 37 37 38 39 40 41 41 41 42 43 44 44 44 44 45 46 46 45 45 44 42 43 43 40 36 35 35 32
12 13 15 18 18 17 16 18 19 19 18 18 18 18 19 19 20 20 21 22 23 24 24 26 27 27 27 27 26 23 21 21 22 23 26 29 31 32 33 34 35 35 36 36 37 38 38 38 38 38 38 38 38 38 38 38 38 38 39 40 41 41 41 41 40 41 42 44 46 46 47 48 48 48 47 46 45 44 42 41 38 36 35 35 32
13 15 17 18 18 17 18 19 19 19 18 18 17 17 18 19 19 19 19 19 20 21 21 21 22 23 23 23 22 20 19 18 19 21 23 26 28 31 32 33 34 35 35 36 37 37 37 37 37 37 37 37 37 38 39 39 40 40 41 41 42 42 41 40 40 40 41 42 44 45 46 46 48 50 51 51 49 46 41 38 36 35 35 34 32
14 16 17 17 17 17 18 19 19 18 17 17 17 17 18 18 18 18 16 15 15 17 18 18 18 19 20 20 19 17 17 16 17 18 20 22 24 26 28 29 31 31 31 32 33 33 33 33 33 33 33 33 34 34 35 36 38 40 41 41 42 41 41 40 38 38 39 40 41 42 42 41 43 47 49 49 46 42 38 36 34 32 32 32 31
15 15 14 15 16 16 18 19 19 18 17 17 17 17 17 17 18 17 15 13 13 13 13 13 14 15 17 17 16 14 14 14 14 16 18 19 20 21 22 23 24 25 25 26 26 27 27 27 27 27 27 28 29 30 31 32 34 36 38 40 41 41 40 38 36 36 37 39 40 40 38 37 39 42 43 41 38 35 33 32 31 29 28 28 28
14 13 11 12 14 16 17 18 18 17 16 16 16 16 16 16 17 16 14 13 12 10 9 10 11 13 14 14 13 11 10 11 12 13 14 15 15 16 17 18 18 19 20 20 21 21 21 21 21 22 22 22 23 24 25 26 27 29 31 33 36 37 37 35 33 33 35 36 36 35 35 35 36 37 38 35 32 29 28 27 26 24 23 23 23
11 10 10 11 13 15 15 15 15 15 15 15 14 13 13 14 14 14 13 12 10 8 7 8 9 10 11 11 10 8 7 7 8 8 9 9 10 10 10 11 12 12 13 14 14 14 15 15 15 15 15 15 15 15 16 17 18 19 20 21 23 25 26 25 24 25 27 27 26 25 27 29 29 29 28 27 25 23 22 21 20 18 17 17 17
Wind_Direction
224 222 220 222 223 223 224 222 223 224 223 224 224 223 223 223 224 225 224 222 220 221 221 221 223 222 219 219 220 221 223 224 225 228 229 232 233 229 230 238 242 242 242 238 236 239 239 237 236 236 237 235 231 229 235 243 246 249 252 257 267 274 283 295 299 299 307 309 312 319 315 317 319 311 316 319 310 313 324 333 343 349 347 331 324
229 228 223 223 224 223 224 224 223 223 224 224 224 223 222 223 224 225 225 223 221 220 221 222 225 225 224 223 222 223 224 223 224 226 227 228 232 234 236 241 241 242 245 244 242 244 243 241 239 238 239 239 238 236 237 241 245 249 254 259 264 265 273 286 292 295 301 304 306 313 317 321 318 310 311 308 303 307 315 327 336 339 346 340 315
228 233 230 227 226 225 225 226 226 225 225 225 224 223 222 223 224 225 226 226 224 222 221 223 226 226 227 227 225 224 224 222 223 226 228 229 231 234 239 246 247 245 247 247 245 246 247 247 243 240 241 244 244 241 239 241 241 243 248 251 256 258 264 276 284 290 294 296 302 309 307 309 312 311 309 305 306 307 309 320 327 326 339 345 309
221 232 236 233 230 230 229 228 229 228 228 228 226 224 223 224 225 225 226 227 227 226 223 224 227 228 226 228 227 225 224 223 224 227 231 233 235 237 240 247 251 251 252 249 246 245 246 248 245 240 239 243 246 243 240 243 245 248 253 256 259 258 257 266 276 284 289 293 299 302 299 303 308 309 309 306 305 305 303 311 316 317 333 341 302
216 227 238 239 237 236 233 231 232 231 230 230 229 227 225 225 227 227 226 227 228 229 228 226 229 230 229 228 227 226 225 226 228 231 236 239 239 241 244 249 251 253 254 253 250 248 246 246 245 241 239 242 246 245 243 245 248 250 253 255 259 260 258 264 270 276 284 289 294 298 299 302 303 303 306 303 302 304 303 308 311 311 325 335 297
216 221 231 236 238 241 239 235 235 234 233 233 231 230 228 225 227 229 228 228 229 231 232 231 231 232 232 231 230 230 230 232 234 235 238 242 243 243 245 249 252 254 255 255 255 254 252 249 246 243 242 242 245 244 242 244 246 248 250 251 254 257 259 264 267 272 278 283 288 294 296 299 300 300 301 298 296 298 298 303 307 308 315 321 304
220 225 230 232 236 243 243 239 239 238 236 235 232 231 230 228 228 230 231 230 229 231 233 234 234 233 233 233 234 234 235 236 238 238 238 241 245 247 247 249 253 255 256 256 255 254 254 253 251 248 246 245 244 244 243 245 246 246 249 252 254 256 257 260 265 270 275 278 283 288 290 292 295 295 296 297 297 298 297 298 300 301 307 312 312
223 230 237 237 239 245 245 242 242 241 240 239 236 234 233 233 232 234 236 234 232 231 232 235 237 237 236 234 234 236 237 237 238 239 239 240 243 247 249 249 251 254 256 256 255 253 250 249 250 249 249 247 245 244 243 244 245 245 248 251 254 255 254 253 256 260 266 270 273 276 280 284 288 291 293 295 297 297 295 293 294 298 301 307 311
225 228 238 246 248 248 248 246 244 243 242 241 240 238 237 238 238 239 240 238 236 235 234 235 238 241 242 240 237 237 238 238 237 237 238 239 241 246 249 250 251 253 255 256 256 256 253 249 246 246 249 250 247 245 244 244 245 244 246 250 253 255 256 255 255 257 261 264 266 271 277 281 286 290 290 287 286 287 290 291 292 296 297 299 304
233 228 235 249 255 252 251 251 248 246 245 244 242 241 240 241 242 242 243 242 240 240 239 238 238 241 245 246 244 242 242 241 239 236 236 238 240 244 248 251 251 252 254 255 256 256 254 252 248 245 249 252 250 246 245 245 246 245 244 248 251 254 256 256 256 256 258 262 263 265 269 272 276 279 280 282 284 285 290 289 287 289 291 295 300
239 236 236 246 256 257 255 254 253 250 249 247 246 244 243 243 244 244 245 245 244 243 242 242 242 242 245 248 249 248 247 245 242 238 236 237 239 242 246 249 251 252 253 255 256 255 253 252 251 251 254 255 252 249 247 246 247 246 246 247 250 252 253 254 254 255 256 258 260 261 263 266 269 273 276 280 281 279 279 281 282 285 287 290 295
238 240 242 243 252 259 259 257 256 254 252 251 250 249 247 247 247 246 246 246 246 245 244 243 243 243 244 246 248 249 249 249 247 241 237 236 236 239 243 247 250 252 253 254 255 255 254 252 251 251 254 257 255 251 249 248 248 248 248 248 249 251 252 252 253 254 255 257 258 258 260 264 270 275 277 276 274 274 276 279 282 283 283 283 286
236 236 243 244 248 256 260 258 257 256 256 255 254 253 253 252 250 249 248 248 249 248 246 244 242 242 243 244 246 247 248 250 250 245 240 237 235 236 240 243 246 249 251 252 253 253 253 252 251 248 248 252 255 254 252 251 250 250 250 250 250 251 252 254 255 256 256 258 260 261 263 268 274 278 278 276 276 276 276 277 279 280 280 280 281
243 237 239 244 246 250 256 258 257 257 257 257 256 256 256 255 254 253 252 253 252 250 247 245 244 241 240 242 243 245 246 249 250 247 242 239 237 237 239 241 242 244 246 249 250 251 251 251 251 251 249 249 254 255 254 253 253 252 251 251 252 252 253 254 255 256 257 257 260 264 268 272 276 278 278 279 280 279 276 275 274 276 278 278 280
254 243 237 240 246 247 249 254 257 257 257 257 257 257 257 258 257 256 255 255 254 253 250 247 246 243 241 241 242 243 244 246 248 248 245 242 240 239 240 240 242 243 244 246 247 248 250 250 250 251 251 250 252 253 252 252 254 255 254 254 254 254 254 254 254 255 257 259 262 265 268 271 273 276 278 278 279 280 278 275 273 274 276 278 281
267 255 242 236 240 244 245 249 254 256 257 257 257 256 256 257 257 258 257 254 252 252 253 251 248 246 244 244 245 244 244 245 247 247 247 245 243 241 240 240 241 242 242 244 246 246 248 249 249 249 250 250 251 252 251 250 251 253 254 255 255 255 256 258 258 257 257 259 263 265 266 268 270 272 275 274 274 275 275 273 271 272 275 278 281
310 274 249 235 234 237 239 242 247 252 255 256 257 256 254 255 255 256 257 254 249 247 250 252 252 251 250 249 248 246 245 245 246 246 245 245 243 241 240 240 241 242 242 243 244 245 246 247 247 248 249 250 251 251 250 249 248 249 251 252 254 254 254 257 260 261 260 260 262 265 266 267 269 270 271 271 272 273 271 271 271 269 268 270 273
355 324 267 239 233 231 230 233 239 244 246 248 251 253 253 254 255 255 256 255 251 245 243 246 250 253 254 253 252 251 248 247 248 247 245 244 242 240 241 241 242 243 243 243 243 244 245 246 246 246 247 248 250 251 250 249 247 248 248 250 252 253 253 253 254 260 263 263 263 264 265 267 268 268 269 271 272 271 268 270 272 267 259 259 263
1 351 321 271 245 233 227 225 227 234 239 240 242 247 250 251 253 254 255 255 253 249 243 240 242 247 250 251 253 254 253 251 250 249 246 244 242 241 240 241 242 243 244 244 243 243 244 245 246 246 246 246 248 250 250 248 247 247 248 249 250 252 254 253 249 253 261 265 266 265 265 267 267 267 268 270 270 269 268 270 270 263 255 255 258
356 354 345 322 287 254 237 229 225 228 237 242 240 240 242 245 247 248 249 250 249 247 243 240 240 242 243 245 247 250 253 253 252 251 249 246 243 241 240 239 240 241 243 244 244 244 244 245 246 247 246 245 245 248 249 248 247 247 247 247 249 252 254 253 250 251 255 259 263 263 263 264 264 265 267 269 270 270 269 269 269 265 259 255 254
347 348 349 339 318 292 262 244 238 239 247 251 246 241 240 241 242 242 243 244 243 242 240 239 240 241 242 243 243 243 246 249 251 252 251 247 243 242 241 240 240 240 241 243 244 244 245 245 247 248 248 246 245 246 248 248 246 245 245 247 250 253 254 252 251 254 257 258 260 260 261 263 265 266 267 268 270 272 271 269 267 263 261 259 257
340 339 345 343 327 309 289 264 249 247 253 258 256 250 247 247 247 244 244 245 244 242 241 239 240 241 241 242 243 242 242 244 247 250 250 248 245 242 241 241 241 240 240 242 243 244 245 246 247 249 250 249 247 245 247 248 246 245 245 247 250 251 252 252 252 254 257 257 258 258 259 261 262 262 262 261 262 266 269 271 270 265 262 262 261
336 333 338 342 334 315 300 287 269 252 247 250 253 252 249 247 248 248 249 252 252 249 244 240 241 242 241 241 243 244 244 244 246 249 251 250 247 243 240 240 241 240 240 241 242 244 246 246 247 249 250 251 249 247 246 246 246 246 246 247 248 249 250 251 251 252 252 252 252 253 253 253 252 253 256 258 257 253 252 258 266 270 268 264 263
330 330 330 337 338 326 308 296 287 273 255 244 245 248 248 248 250 251 252 254 256 255 250 245 242 242 241 239 240 243 243 242 243 248 250 248 244 241 239 239 240 241 241 241 241 242 245 247 248 248 249 250 250 248 247 245 245 246 245 244 245 246 246 246 246 248 248 248 248 249 249 250 251 252 253 257 258 254 248 251 260 269 270 266 264
321 325 321 324 332 333 325 310 294 286 276 259 248 247 249 250 250 251 252 253 254 255 254 250 246 243 242 240 239 240 241 240 240 243 245 244 241 239 238 237 238 241 243 243 243 241 242 245 248 249 249 249 249 249 247 246 245 245 244 242 241 240 241 241 242 243 244 245 246 248 250 252 255 257 256 255 256 256 256 258 262 265 266 266 266
309 313 311 308 313 320 323 319 306 294 287 278 264 247 240 246 253 256 255 254 253 252 253 254 251 247 246 245 243 241 239 238 237 239 243 244 240 235 234 234 235 238 242 245 245 244 242 244 248 250 250 249 249 248 247 246 245 244 243 241 237 236 236 238 239 239 241 243 245 249 252 253 255 258 258 255 252 254 256 258 261 264 266 267 267
300 297 300 306 306 304 307 313 314 311 302 292 281 263 240 238 252 261 258 256 256 255 254 255 254 251 250 250 247 244 241 239 235 233 237 241 236 230 230 233 234 235 238 241 243 244 246 247 248 250 251 250 249 248 247 246 244 242 240 238 236 235 235 237 239 240 241 243 244 248 252 253 252 254 255 253 251 253 255 258 261 264 265 266 266
297 292 292 302 306 300 298 301 305 312 315 308 299 289 268 249 245 247 249 256 263 263 259 257 257 258 259 259 257 253 247 243 238 232 231 234 233 229 229 231 232 234 237 240 241 243 246 248 248 248 247 247 247 246 245 245 243 241 239 237 236 236 236 236 237 239 240 242 244 246 248 249 250 251 252 253 254 255 256 258 260 261 261 261 262
295 292 291 294 296 297 296 293 293 300 311 315 311 306 295 279 263 252 247 247 252 258 259 258 257 259 260 261 262 260 254 250 244 236 230 229 230 233 237 239 240 242 246 248 248 246 245 245 245 245 244 243 244 244 244 243 244 243 241 239 237 236 236 236 236 237 239 240 242 244 245 247 249 250 250 251 254 256 256 256 258 261 262 260 259
294 293 289 288 288 289 290 289 286 290 300 310 315 314 307 297 284 272 263 255 250 251 257 258 259 259 259 258 258 257 257 257 254 246 236 230 231 242 257 262 261 256 252 251 253 251 248 248 247 245 242 239 240 241 240 240 241 242 242 241 240 238 238 238 237 238 239 241 242 243 245 247 248 249 249 251 253 255 255 255 256 258 260 259 258
292 293 291 286 284 285 287 289 287 286 290 299 308 313 312 307 297 286 278 270 261 257 257 258 259 261 261 260 257 254 255 257 257 254 250 241 239 250 266 272 273 268 257 253 254 251 249 248 246 243 240 238 237 238 238 239 239 239 238 239 241 241 241 241 241 240 240 242 243 244 245 247 248 249 249 251 253 254 254 255 255 257 258 257 258
288 291 292 289 285 285 288 292 289 285 286 289 296 304 309 310 306 296 288 280 271 264 261 260 261 263 264 263 261 258 255 253 251 252 255 254 253 260 266 268 268 263 255 252 251 249 247 246 243 238 237 238 237 236 237 238 239 239 238 236 238 240 241 243 244 244 243 244 245 246 246 247 249 250 251 252 252 253 252 253 256 259 261 260 260
285 287 288 289 287 285 286 286 284 282 281 282 287 294 301 306 308 305 299 291 282 274 269 264 263 266 268 268 267 263 258 252 250 251 254 256 259 263 265 262 257 251 247 246 247 246 245 243 240 237 237 237 238 238 238 238 238 239 240 239 239 239 239 241 245 246 246 246 247 249 250 250 250 251 253 253 252 252 252 252 254 258 261 260 259
284 285 286 287 287 286 284 283 283 282 279 278 282 288 295 300 305 307 306 302 294 287 282 275 269 267 267 269 270 269 264 257 252 251 252 254 257 258 257 256 254 247 244 244 244 244 243 241 239 238 238 238 238 239 241 242 241 240 241 241 241 241 240 240 243 246 247 248 248 249 250 251 251 251 252 252 251 250 250 251 251 254 257 257 258
282 285 285 283 283 285 286 285 286 285 281 277 277 282 289 296 301 305 308 308 303 298 294 293 290 282 274 270 269 268 267 263 255 250 247 248 250 251 253 254 253 248 243 242 242 242 243 242 240 239 240 240 239 238 240 242 242 240 240 240 240 241 241 240 242 245 248 249 249 249 250 250 250 251 251 251 249 248 249 250 249 251 254 255 259
281 284 285 282 280 280 283 285 286 287 285 281 276 275 281 290 298 302 305 307 306 303 300 299 299 296 291 286 279 272 269 266 260 250 244 241 241 242 245 248 251 250 248 244 242 241 243 245 245 243 241 241 242 242 243 243 241 241 241 241 241 242 243 242 242 244 246 247 247 248 249 249 248 248 248 249 248 247 249 248 248 251 253 255 259
280 282 283 283 280 279 279 282 286 288 288 286 280 273 274 283 294 300 302 304 305 303 302 301 301 301 301 300 294 284 275 271 266 259 249 242 239 238 239 242 245 249 249 246 244 244 244 246 247 246 244 242 244 246 247 246 244 243 244 245 244 244 246 245 243 243 245 245 244 243 245 247 246 246 247 248 246 244 246 244 242 249 256 258 260
279 280 281 281 279 278 278 280 284 287 289 289 286 279 272 276 286 294 297 300 302 302 303 304 301 299 302 303 299 291 284 276 271 265 257 250 243 240 240 241 244 247 247 246 245 245 245 246 246 247 246 244 244 244 246 247 247 246 247 247 247 246 246 245 244 244 244 242 238 236 239 243 243 242 245 246 244 241 246 247 244 248 256 261 262
280 281 281 279 277 276 276 278 281 285 287 289 289 285 276 273 278 286 293 296 298 300 302 303 300 297 299 298 292 286 284 282 277 269 262 257 250 245 243 242 243 246 248 247 247 247 248 248 248 246 246 247 246 246 247 248 248 249 249 249 249 249 247 246 245 245 245 243 240 237 238 241 242 242 243 246 245 242 245 251 252 253 257 260 262
281 280 280 278 275 273 274 275 278 281 284 286 288 287 283 278 275 279 287 292 295 297 298 298 298 296 292 284 272 263 263 266 267 266 264 262 258 253 248 244 243 245 247 247 248 247 247 249 249 245 244 245 246 246 247 248 247 249 250 250 250 250 250 250 249 247 246 246 245 244 242 241 240 240 242 245 247 247 247 252 256 257 257 258 261
277 276 277 276 274 272 270 271 274 277 280 282 284 286 286 282 278 278 282 287 291 294 294 294 294 293 289 284 276 265 258 258 260 262 265 266 265 261 256 252 249 248 249 250 251 251 250 250 250 250 250 251 250 249 249 248 249 250 252 254 255 254 252 251 252 251 249 248 247 246 245 244 241 240 242 244 247 248 250 252 255 258 258 257 259
275 275 274 274 274 272 269 268 270 272 276 279 281 283 285 284 281 280 281 283 287 291 292 292 291 290 289 287 284 275 266 263 262 260 259 261 262 262 261 258 253 249 246 245 245 246 246 245 246 249 252 254 255 255 254 252 252 254 254 255 256 256 254 252 251 251 250 250 249 247 245 245 246 247 248 248 247 246 247 249 252 255 257 258 257
276 276 273 271 271 270 267 266 268 269 271 275 277 280 283 285 284 282 282 282 285 288 290 291 290 289 288 288 286 280 273 267 262 256 251 247 246 249 252 252 249 245 244 242 241 241 241 241 244 247 247 247 249 250 252 254 256 258 258 259 259 260 259 258 255 253 251 251 251 247 244 244 248 249 249 248 247 244 243 245 247 249 254 257 255
276 276 273 270 269 268 267 267 269 270 270 270 272 274 277 281 283 282 281 281 282 284 287 289 289 288 288 288 286 282 275 268 262 256 250 245 242 242 244 247 247 247 247 248 247 248 248 249 251 253 252 251 250 250 251 253 254 254 255 257 259 261 263 264 264 262 258 255 254 251 247 246 249 250 248 246 244 241 239 239 241 243 247 250 247
275 274 273 272 270 269 269 270 271 271 270 268 269 269 271 275 279 281 280 279 280 281 284 286 287 287 287 287 286 283 277 270 264 258 251 247 244 243 244 245 247 248 249 249 251 253 255 255 256 256 256 255 256 255 255 255 254 253 253 253 254 256 259 261 264 265 262 258 258 256 251 248 250 252 250 247 246 242 238 237 237 239 242 242 237
274 272 272 271 268 268 269 269 269 270 270 268 268 269 271 274 277 278 278 278 279 280 282 284 285 286 286 284 283 282 278 273 268 263 256 250 247 246 245 246 248 250 252 252 254 255 257 257 258 259 260 260 260 260 260 260 259 258 257 256 254 254 255 256 258 261 261 262 263 261 254 250 253 256 254 250 248 244 240 237 236 235 235 234 230
271 271 271 269 266 266 268 268 268 268 268 267 267 269 273 276 277 277 276 276 277 280 282 284 285 285 283 281 280 279 277 273 269 266 263 258 254 252 251 251 252 254 255 256 257 258 259 260 261 263 265 266 267 266 266 265 264 263 261 260 258 257 257 256 257 258 259 261 264 262 256 254 259 263 261 255 250 245 239 237 233 229 227 227 226
267 267 268 266 265 264 266 267 268 268 268 268 267 268 272 276 278 278 278 276 275 278 282 284 285 283 281 279 277 275 273 272 270 268 266 265 262 260 258 257 257 257 258 259 261 263 264 265 266 268 269 271 272 272 271 269 267 265 263 261 261 261 261 261 261 260 258 257 258 257 256 256 260 263 260 253 246 239 234 231 225 219 218 219 217
269 268 266 265 264 262 263 266 269 269 269 268 267 267 271 275 277 278 279 279 277 278 281 284 285 283 281 279 276 273 271 271 271 270 269 268 267 265 264 263 262 262 262 263 265 266 268 270 271 273 274 275 277 278 279 277 274 271 268 265 264 265 266 266 267 266 262 257 254 254 253 250 250 250 248 242 234 229 225 221 216 210 207 208 206
273 270 265 263 263 261 262 265 269 269 268 267 267 268 271 274 275 275 276 277 276 277 281 283 283 282 281 279 277 275 275 276 276 275 275 273 271 269 268 268 268 268 269 270 271 272 274 275 275 276 276 277 279 281 283 284 284 281 278 275 272 271 270 270 270 268 264 259 256 255 252 248 246 245 242 235 226 221 217 212 208 204 202 200 200
276 272 268 267 267 266 264 263 263 263 263 265 267 270 271 273 274 276 276 275 274 278 285 287 283 279 278 276 274 275 278 279 280 280 278 277 277 277 277 276 275 275 275 276 277 279 281 283 284 284 284 284 286 289 292 295 296 294 291 289 286 283 280 279 277 272 266 260 257 253 248 244 242 237 229 218 208 204 203 200 197 196 197 198 198
Height
1559 1561 1564 1566 1568 1571 1573 1575 1577 1579 1580 1582 1583 1586 1588 1589 1591 1593 1594 1596 1597 1598 1599 1600 1602 1603 1604 1605 1606 1607 1607 1608 1609 1610 1610 1611 1611 1612 1612 1612 1612 1613 1613 1614 1614 1615 1615 1615 1616 1616 1617 1617 1618 1619 1620 1620 1620 1620 1621 1621 1622 1622 1622 1622 1622 1621 1621 1621 1620 1620 1620 1618 1618 1617 1616 1616 1615 1613 1613 1612 1611 1610 1609 1606 1604
1557 1559 1561 1564 1565 1568 1570 1572 1575 1576 1578 1580 1581 1583 1585 1586 1589 1590 1592 1593 1595 1596 1597 1598 1600 1601 1602 1603 1604 1605 1606 1607 1608 1608 1609 1609 1610 1610 1611 1611 1611 1611 1612 1612 1613 1613 1614 1614 1615 1615 1616 1616 1616 1617 1618 1619 1620 1620 1621 1621 1621 1622 1621 1621 1620 1620 1620 1619 1619 1619 1618 1618 1617 1616 1615 1615 1614 1613 1612 1612 1611 1610 1609 1607 1604
1555 1556 1559 1561 1563 1566 1568 1570 1572 1574 1575 1577 1578 1580 1582 1584 1586 1587 1589 1591 1592 1594 1595 1596 1597 1598 1600 1601 1602 1603 1604 1605 1606 1606 1607 1608 1609 1609 1610 1610 1610 1610 1611 1611 1611 1612 1612 1613 1614 1614 1615 1615 1615 1616 1617 1617 1618 1619 1619 1620 1620 1621 1620 1620 1619 1619 1618 1618 1618 1618 1618 1617 1616 1615 1614 1614 1613 1612 1611 1611 1610 1609 1608 1607 1604
1554 1554 1556 1559 1561 1563 1565 1567 1569 1571 1573 1574 1576 1578 1579 1581 1582 1584 1586 1588 1589 1591 1592 1594 1595 1596 1597 1598 1599 1601 1602 1603 1604 1605 1605 1606 1607 1608 1608 1608 1608 1609 1609 1610 1610 1611 1611 1611 1612 1613 1614 1614 1614 1614 1615 1615 1616 1616 1617 1618 1618 1619 1619 1618 1618 1617 1617 1616 1616 1616 1616 1616 1615 1614 1614 1613 1612 1611 1610 1610 1609 1608 1607 1607 1604
1552 1552 1553 1556 1558 1560 1562 1565 1567 1568 1570 1572 1573 1576 1577 1578 1580 1581 1583 1585 1587 1588 1589 1591 1592 1593 1594 1596 1597 1598 1599 1600 1602 1603 1604 1604 1605 1606 1606 1606 1607 1607 1607 1608 1608 1609 1609 1610 1611 1612 1612 1612 1612 1612 1613 1614 1614 1615 1616 1616 1617 1617 1617 1616 1616 1616 1615 1615 1615 1615 1614 1614 1614 1613 1612 1612 1611 1610 1609 1608 1608 1606 1606 1606 1604
1549 1550 1552 1553 1555 1557 1559 1562 1564 1565 1567 1569 1571 1573 1575 1576 1577 1578 1580 1582 1583 1585 1586 1587 1589 1590 1591 1593 1594 1595 1596 1598 1599 1600 1602 1602 1603 1604 1604 1604 1605 1605 1605 1606 1606 1607 1607 1608 1609 1609 1610 1610 1610 1611 1611 1612 1612 1613 1614 1614 1615 1615 1615 1614 1614 1614 1614 1613 1613 1613 1612 1612 1612 1611 1611 1611 1610 1610 1608 1608 1607 1605 1605 1605 1604
1545 1547 1549 1551 1552 1554 1556 1559 1561 1563 1565 1567 1569 1571 1572 1574 1575 1576 1577 1579 1580 1582 1583 1584 1585 1587 1588 1590 1591 1592 1593 1595 1596 1597 1599 1600 1601 1601 1602 1602 1603 1603 1603 1604 1605 1605 1606 1606 1607 1607 1607 1607 1608 1608 1609 1610 1610 1611 1612 1612 1612 1612 1612 1612 1612 1612 1612 1612 1611 1611 1611 1611 1610 1610 1609 1609 1609 1608 1607 1607 1606 1605 1604 1603 1603
1543 1544 1546 1548 1549 1551 1553 1555 1558 1559 1562 1563 1566 1568 1569 1571 1572 1573 1574 1576 1577 1579 1580 1581 1582 1583 1585 1586 1588 1589 1590 1591 1592 1594 1595 1597 1598 1598 1599 1600 1600 1601 1601 1601 1602 1603 1604 1604 1605 1605 1605 1605 1605 1606 1607 1607 1608 1609 1610 1610 1610 1610 1610 1610 1610 1610 1610 1610 1610 1610 1609 1609 1608 1608 1608 1607 1607 1607 1606 1606 1605 1604 1603 1602 1601
1542 1543 1543 1545 1546 1548 1550 1552 1554 1556 1558 1560 1562 1564 1566 1568 1569 1570 1571 1573 1574 1576 1577 1579 1580 1580 1582 1583 1584 1586 1586 1587 1588 1590 1592 1593 1595 1596 1596 1597 1598 1598 1598 1599 1600 1600 1601 1602 1603 1603 1602 1602 1602 1603 1604 1605 1606 1606 1607 1607 1607 1607 1607 1608 1608 1608 1608 1608 1608 1608 1607 1607 1607 1607 1607 1606 1606 1606 1605 1604 1603 1603 1602 1601 1600
1541 1542 1542 1542 1544 1546 1547 1549 1551 1553 1554 1556 1558 1560 1562 1564 1566 1567 1568 1570 1571 1573 1574 1576 1577 1577 1578 1579 1581 1582 1582 1583 1584 1586 1588 1590 1591 1593 1593 1594 1594 1595 1595 1596 1596 1597 1598 1599 1600 1600 1599 1599 1599 1600 1601 1602 1603 1604 1604 1604 1604 1605 1605 1605 1605 1605 1606 1605 1606 1606 1606 1606 1606 1606 1606 1605 1605 1604 1603 1603 1602 1601 1601 1600 1599
1539 1540 1541 1541 1542 1543 1544 1546 1548 1550 1551 1553 1555 1557 1559 1561 1562 1563 1565 1566 1568 1569 1571 1572 1573 1574 1575 1576 1577 1578 1579 1579 1580 1582 1584 1586 1588 1589 1590 1590 1591 1591 1592 1592 1593 1594 1595 1596 1597 1597 1596 1596 1596 1597 1598 1599 1600 1600 1601 1601 1602 1602 1602 1603 1603 1603 1603 1603 1603 1604 1604 1604 1604 1604 1604 1604 1604 1603 1602 1601 1600 1599 1599 1598 1598
1536 1538 1539 1540 1540 1540 1541 1543 1544 1546 1548 1549 1551 1553 1555 1557 1558 1560 1561 1562 1564 1565 1566 1568 1569 1571 1572 1572 1573 1574 1575 1575 1576 1578 1580 1582 1584 1585 1586 1587 1587 1587 1588 1589 1589 1590 1591 1592 1593 1594 1594 1593 1593 1594 1595 1596 1597 1597 1598 1599 1599 1599 1600 1600 1600 1601 1601 1601 1601 1601 1602 1602 1602 1602 1602 1602 1602 1601 1600 1599 1598 1597 1597 1596 1596
1533 1535 1536 1538 1538 1538 1538 1540 1541 1542 1544 1546 1548 1550 1551 1553 1554 1556 1557 1559 1560 1561 1562 1563 1565 1566 1567 1568 1569 1570 1570 1571 1572 1573 1575 1577 1579 1581 1581 1582 1583 1583 1584 1585 1586 1586 1587 1588 1589 1590 1591 1590 1590 1591 1591 1592 1593 1594 1595 1595 1596 1596 1596 1597 1597 1598 1598 1598 1598 1598 1599 1599 1599 1599 1599 1599 1598 1598 1597 1596 1596 1595 1594 1594 1593
1531 1532 1533 1535 1536 1536 1536 1537 1538 1539 1541 1542 1544 1546 1547 1549 1550 1552 1553 1555 1555 1556 1558 1559 1560 1561 1562 1563 1564 1565 1566 1566 1567 1568 1570 1572 1574 1576 1577 1578 1578 1579 1580 1580 1581 1582 1583 1584 1584 1585 1587 1587 1586 1587 1588 1589 1590 1590 1591 1591 1592 1593 1593 1594 1594 1595 1595 1595 1595 1595 1596 1596 1596 1596 1596 1596 1595 1595 1594 1594 1593 1593 1592 1591 1591
1528 1529 1530 1532 1533 1534 1534 1534 1534 1536 1537 1538 1540 1541 1543 1544 1546 1548 1549 1550 1551 1552 1553 1554 1555 1556 1557 1558 1559 1560 1561 1562 1563 1564 1566 1568 1570 1571 1572 1573 1573 1574 1575 1575 1576 1577 1578 1579 1579 1581 1582 1582 1583 1584 1585 1586 1586 1587 1587 1588 1588 1589 1589 1590 1591 1591 1592 1592 1592 1592 1593 1593 1593 1593 1593 1593 1592 1592 1591 1591 1591 1590 1589 1589 1589
1527 1527 1528 1529 1530 1531 1531 1531 1532 1532 1533 1534 1535 1536 1538 1540 1541 1543 1545 1546 1547 1547 1548 1549 1550 1551 1552 1553 1554 1555 1556 1557 1558 1560 1562 1564 1566 1567 1568 1568 1569 1569 1570 1571 1571 1572 1573 1573 1574 1576 1577 1578 1579 1580 1582 1583 1583 1583 1584 1584 1585 1585 1586 1586 1586 1587 1588 1589 1589 1589 1589 1590 1590 1589 1590 1590 1589 1589 1588 1588 1588 1587 1587 1586 1586
1526 1525 1525 1526 1526 1527 1527 1528 1529 1529 1529 1530 1530 1531 1533 1534 1536 1538 1539 1541 1543 1543 1544 1544 1545 1546 1547 1548 1549 1550 1551 1553 1554 1555 1557 1559 1561 1563 1563 1564 1564 1565 1566 1566 1567 1567 1568 1569 1570 1571 1572 1574 1574 1576 1578 1579 1580 1579 1580 1581 1581 1582 1582 1583 1583 1583 1585 1586 1586 1585 1585 1586 1586 1586 1586 1586 1586 1586 1585 1584 1585 1585 1585 1584 1583
1525 1524 1523 1523 1523 1523 1524 1524 1525 1526 1525 1525 1525 1526 1528 1529 1531 1533 1534 1536 1537 1539 1540 1541 1541 1542 1542 1543 1544 1545 1547 1548 1549 1551 1553 1555 1556 1558 1559 1559 1560 1560 1561 1562 1563 1563 1563 1564 1565 1567 1568 1569 1570 1572 1574 1575 1576 1576 1576 1577 1577 1578 1579 1580 1580 1580 1580 1581 1582 1582 1582 1582 1582 1582 1582 1582 1583 1583 1582 1581 1582 1583 1582 1582 1581
1523 1523 1522 1521 1521 1520 1520 1519 1520 1521 1521 1522 1522 1523 1524 1525 1526 1527 1529 1530 1532 1534 1535 1536 1537 1537 1538 1539 1540 1541 1542 1543 1545 1546 1548 1550 1552 1553 1554 1555 1555 1556 1557 1558 1558 1559 1559 1560 1561 1562 1564 1565 1566 1567 1569 1571 1572 1572 1573 1573 1573 1574 1575 1576 1577 1577 1576 1577 1578 1578 1578 1578 1578 1578 1578 1579 1579 1579 1578 1577 1578 1579 1579 1578 1578
1522 1521 1521 1520 1519 1518 1517 1516 1517 1517 1518 1518 1519 1520 1521 1523 1524 1524 1525 1526 1527 1528 1530 1531 1532 1533 1534 1535 1536 1537 1537 1538 1539 1540 1542 1544 1547 1548 1549 1550 1550 1551 1552 1553 1554 1554 1554 1555 1556 1557 1559 1561 1562 1563 1565 1566 1567 1568 1569 1569 1569 1570 1571 1572 1573 1573 1573 1573 1574 1574 1574 1574 1574 1574 1575 1575 1575 1575 1575 1574 1574 1575 1575 1575 1576
1520 1520 1519 1518 1517 1516 1516 1516 1515 1516 1516 1516 1516 1518 1519 1521 1522 1523 1523 1524 1524 1524 1524 1525 1527 1528 1529 1530 1532 1532 1533 1534 1534 1535 1536 1538 1541 1543 1544 1544 1545 1547 1548 1548 1549 1549 1550 1551 1552 1553 1555 1557 1559 1559 1560 1562 1563 1564 1564 1564 1565 1567 1568 1568 1569 1569 1570 1570 1570 1570 1570 1570 1570 1571 1571 1571 1571 1571 1570 1570 1571 1571 1571 1572 1573
1518 1518 1518 1517 1516 1515 1515 1514 1513 1513 1514 1515 1516 1517 1518 1519 1520 1520 1522 1523 1522 1521 1520 1520 1521 1522 1524 1525 1526 1527 1528 1529 1530 1530 1530 1532 1535 1537 1539 1540 1541 1543 1543 1543 1544 1545 1546 1547 1548 1549 1550 1552 1554 1555 1556 1557 1559 1559 1559 1560 1562 1563 1564 1565 1565 1566 1566 1566 1566 1566 1566 1566 1566 1567 1567 1568 1568 1567 1567 1566 1566 1567 1568 1568 1569
1517 1516 1516 1516 1516 1514 1513 1512 1511 1511 1512 1513 1514 1515 1515 1516 1516 1517 1519 1521 1521 1519 1518 1517 1516 1516 1517 1519 1520 1522 1523 1524 1525 1525 1525 1527 1529 1531 1533 1535 1537 1538 1539 1539 1540 1541 1542 1543 1544 1545 1546 1548 1550 1551 1552 1553 1554 1554 1555 1557 1558 1560 1561 1561 1561 1561 1561 1562 1561 1561 1561 1561 1562 1563 1563 1564 1565 1565 1565 1564 1563 1563 1564 1565 1565
1516 1515 1515 1514 1514 1513 1512 1511 1510 1509 1509 1509 1510 1511 1512 1513 1513 1513 1515 1517 1518 1518 1516 1514 1512 1511 1512 1513 1515 1517 1518 1518 1519 1519 1520 1522 1524 1525 1528 1530 1532 1533 1534 1535 1537 1538 1539 1539 1540 1541 1542 1544 1545 1547 1548 1549 1549 1550 1551 1553 1554 1555 1556 1556 1556 1556 1556 1556 1556 1556 1556 1556 1557 1558 1559 1559 1560 1561 1561 1561 1560 1560 1560 1561 1561
1515 1513 1513 1513 1512 1512 1510 1509 1509 1509 1508 1507 1506 1507 1508 1510 1510 1510 1510 1511 1512 1513 1513 1511 1508 1507 1507 1508 1510 1512 1513 1513 1514 1514 1514 1516 1518 1520 1522 1525 1527 1529 1530 1530 1532 1534 1536 1536 1536 1536 1538 1540 1541 1543 1543 1544 1544 1545 1547 1549 1550 1550 1550 1551 1551 1551 1551 1551 1551 1551 1551 1551 1552 1553 1554 1556 1556 1557 1557 1557 1557 1557 1557 1557 1557
1514 1512 1512 1511 1510 1510 1509 1509 1509 1509 1507 1506 1505 1504 1504 1504 1505 1507 1508 1508 1508 1508 1509 1508 1506 1504 1503 1504 1505 1507 1508 1508 1509 1510 1510 1511 1513 1515 1517 1519 1522 1524 1525 1526 1528 1529 1531 1531 1532 1532 1533 1535 1536 1537 1538 1539 1540 1541 1542 1543 1544 1544 1545 1545 1546 1546 1546 1546 1547 1547 1547 1548 1548 1549 1550 1552 1552 1552 1552 1553 1553 1553 1553 1553 1553
1513 1512 1510 1509 1509 1508 1508 1508 1508 1507 1506 1505 1504 1503 1502 1501 1501 1503 1504 1505 1505 1505 1505 1506 1504 1502 1501 1502 1502 1503 1503 1503 1504 1505 1505 1506 1507 1510 1512 1514 1517 1519 1520 1521 1523 1524 1525 1527 1528 1529 1530 1530 1531 1532 1533 1534 1534 1535 1536 1537 1538 1538 1539 1540 1540 1541 1541 1542 1543 1543 1543 1544 1545 1546 1546 1547 1547 1547 1548 1548 1548 1549 1549 1549 1548
1511 1510 1509 1508 1507 1506 1505 1505 1505 1504 1503 1502 1501 1501 1500 1498 1497 1497 1499 1500 1501 1501 1503 1503 1501 1499 1499 1500 1501 1501 1501 1501 1501 1501 1502 1502 1502 1504 1507 1509 1511 1513 1515 1517 1519 1521 1521 1522 1523 1524 1525 1525 1526 1527 1527 1528 1528 1529 1530 1531 1532 1533 1534 1535 1535 1535 1536 1537 1538 1539 1539 1540 1540 1541 1542 1542 1542 1543 1544 1544 1544 1544 1544 1544 1543
1509 1508 1508 1506 1505 1504 1503 1502 1501 1501 1500 1499 1498 1498 1497 1496 1494 1493 1495 1497 1497 1497 1498 1499 1498 1496 1495 1497 1500 1500 1499 1499 1499 1498 1498 1498 1498 1499 1501 1503 1506 1510 1512 1514 1516 1517 1517 1517 1518 1519 1520 1520 1521 1521 1522 1522 1522 1523 1524 1525 1526 1527 1528 1528 1529 1529 1531 1532 1533 1533 1534 1535 1536 1537 1537 1537 1537 1538 1539 1539 1539 1539 1539 1539 1538
1506 1506 1506 1504 1503 1501 1500 1499 1498 1497 1497 1496 1495 1494 1493 1493 1492 1491 1490 1492 1492 1493 1493 1493 1493 1493 1492 1492 1495 1497 1497 1498 1498 1496 1495 1494 1494 1495 1497 1499 1502 1506 1509 1511 1512 1512 1512 1512 1513 1514 1515 1516 1516 1517 1518 1518 1518 1518 1519 1520 1520 1521 1522 1522 1523 1524 1526 1526 1527 1528 1529 1530 1531 1532 1532 1532 1532 1533 1534 1534 1534 1534 1534 1533 1533
1503 1503 1503 1502 1501 1499 1498 1496 1495 1494 1494 1493 1491 1490 1489 1489 1488 1488 1487 1487 1487 1487 1487 1487 1488 1489 1489 1489 1491 1493 1495 1497 1499 1497 1493 1491 1491 1492 1494 1496 1498 1501 1504 1506 1506 1506 1507 1507 1508 1509 1510 1511 1512 1513 1514 1514 1514 1515 1515 1516 1516 1516 1516 1517 1518 1520 1521 1521 1522 1523 1524 1524 1525 1526 1526 1526 1527 1528 1529 1528 1528 1528 1528 1528 1528
1501 1500 1500 1500 1499 1497 1495 1494 1492 1491 1490 1489 1489 1488 1486 1485 1483 1483 1484 1483 1482 1481 1480 1480 1481 1483 1485 1486 1488 1490 1491 1494 1496 1495 1492 1490 1488 1489 1491 1493 1495 1497 1499 1500 1501 1501 1502 1503 1503 1504 1505 1506 1507 1508 1510 1510 1510 1511 1512 1512 1512 1512 1512 1512 1513 1515 1516 1517 1517 1518 1518 1519 1520 1520 1521 1521 1522 1523 1523 1523 1522 1522 1522 1522 1522
1499 1498 1498 1497 1496 1495 1493 1491 1490 1489 1487 1486 1486 1486 1485 1483 1481 1479 1478 1478 1478 1477 1476 1475 1475 1477 1480 1482 1483 1484 1485 1487 1488 1487 1486 1485 1484 1485 1487 1489 1491 1493 1494 1495 1495 1496 1497 1498 1498 1499 1501 1502 1503 1504 1505 1505 1506 1507 1507 1508 1509 1508 1508 1509 1509 1510 1511 1512 1512 1512 1513 1514 1515 1515 1515 1516 1517 1517 1516 1517 1516 1516 1516 1516 1516
1496 1495 1495 1494 1493 1492 1491 1489 1488 1487 1485 1483 1483 1483 1483 1482 1480 1478 1475 1474 1473 1473 1472 1472 1472 1474 1476 1478 1478 1478 1478 1478 1479 1479 1479 1479 1480 1482 1483 1485 1486 1488 1489 1490 1491 1492 1492 1493 1494 1495 1496 1498 1499 1500 1500 1500 1501 1502 1502 1503 1504 1505 1505 1505 1505 1504 1505 1506 1507 1507 1507 1508 1509 1510 1510 1511 1511 1510 1510 1510 1511 1511 1510 1510 1511
1493 1491 1491 1491 1490 1489 1488 1487 1486 1484 1483 1481 1480 1480 1480 1479 1478 1476 1475 1473 1470 1469 1468 1468 1469 1470 1472 1474 1475 1474 1473 1472 1473 1473 1473 1474 1476 1478 1479 1480 1481 1482 1484 1485 1486 1486 1487 1488 1490 1491 1492 1493 1494 1495 1495 1495 1496 1496 1497 1498 1499 1499 1500 1500 1499 1499 1500 1500 1501 1501 1501 1502 1504 1505 1505 1505 1505 1504 1504 1505 1505 1505 1505 1505 1506
1490 1488 1487 1487 1487 1486 1485 1485 1484 1482 1481 1479 1477 1476 1477 1477 1475 1474 1473 1472 1470 1468 1466 1466 1467 1468 1469 1470 1471 1471 1470 1469 1469 1469 1469 1470 1472 1473 1474 1475 1476 1478 1479 1480 1481 1482 1482 1484 1485 1487 1488 1488 1489 1489 1490 1491 1491 1491 1491 1492 1493 1493 1493 1494 1494 1494 1495 1495 1496 1496 1496 1497 1498 1499 1499 1499 1499 1500 1500 1500 1500 1499 1499 1501 1502
1487 1486 1484 1484 1483 1482 1482 1481 1481 1480 1478 1476 1474 1473 1473 1474 1473 1471 1470 1470 1469 1467 1466 1465 1465 1465 1466 1467 1467 1467 1467 1467 1467 1467 1467 1467 1468 1469 1469 1470 1472 1473 1475 1476 1477 1477 1478 1479 1480 1482 1483 1483 1484 1484 1485 1485 1485 1486 1486 1487 1487 1487 1487 1487 1488 1488 1488 1489 1490 1490 1490 1491 1492 1492 1492 1492 1494 1495 1495 1496 1496 1495 1495 1496 1497
1484 1482 1481 1480 1479 1479 1478 1477 1477 1477 1475 1474 1472 1470 1469 1470 1470 1469 1467 1467 1468 1466 1465 1464 1463 1463 1464 1465 1465 1464 1464 1465 1464 1464 1464 1464 1465 1465 1466 1467 1468 1469 1470 1471 1472 1473 1473 1474 1476 1477 1478 1478 1479 1479 1479 1479 1480 1481 1481 1481 1481 1481 1481 1481 1481 1481 1481 1481 1482 1482 1482 1482 1484 1485 1485 1485 1488 1489 1489 1489 1490 1490 1489 1490 1491
1480 1479 1478 1477 1476 1475 1474 1474 1473 1473 1472 1471 1470 1468 1466 1466 1467 1467 1465 1465 1465 1465 1464 1463 1463 1462 1463 1464 1463 1462 1462 1462 1462 1461 1461 1461 1461 1462 1462 1463 1464 1465 1465 1467 1468 1469 1469 1470 1471 1472 1473 1473 1474 1474 1474 1475 1475 1476 1476 1477 1476 1475 1475 1475 1475 1475 1474 1473 1474 1475 1475 1475 1475 1476 1476 1477 1479 1481 1481 1481 1482 1483 1484 1483 1483
1477 1476 1475 1474 1473 1472 1471 1470 1470 1469 1469 1468 1467 1466 1465 1464 1464 1464 1463 1462 1462 1462 1462 1462 1461 1461 1460 1460 1459 1459 1458 1458 1458 1459 1459 1458 1458 1458 1458 1459 1460 1460 1461 1462 1463 1464 1465 1466 1467 1467 1468 1468 1469 1469 1469 1470 1470 1470 1470 1471 1470 1470 1470 1470 1470 1470 1469 1469 1469 1471 1471 1471 1470 1470 1469 1469 1471 1473 1474 1475 1475 1476 1477 1478 1477
1474 1473 1472 1471 1470 1469 1468 1467 1466 1466 1465 1464 1463 1463 1463 1462 1461 1460 1460 1458 1458 1458 1459 1459 1459 1458 1457 1456 1456 1456 1455 1454 1454 1455 1455 1455 1455 1454 1454 1455 1456 1456 1457 1458 1458 1459 1460 1461 1462 1462 1462 1463 1463 1464 1463 1463 1463 1464 1464 1465 1465 1465 1465 1465 1465 1465 1465 1464 1463 1464 1466 1466 1466 1465 1464 1464 1464 1466 1467 1468 1469 1470 1470 1472 1473
1471 1470 1469 1468 1467 1466 1465 1464 1463 1462 1462 1461 1460 1459 1459 1458 1457 1456 1455 1455 1454 1453 1454 1454 1455 1455 1454 1453 1453 1453 1452 1450 1450 1450 1451 1451 1452 1451 1451 1451 1451 1452 1452 1452 1452 1453 1453 1455 1456 1456 1457 1458 1458 1458 1458 1457 1457 1457 1458 1458 1458 1458 1459 1459 1459 1459 1458 1457 1456 1457 1459 1460 1460 1460 1461 1461 1460 1459 1460 1461 1463 1463 1464 1466 1467
1467 1467 1466 1465 1464 1463 1462 1461 1460 1459 1458 1457 1456 1455 1454 1454 1454 1452 1451 1450 1450 1449 1449 1449 1450 1450 1450 1449 1449 1448 1447 1446 1446 1446 1446 1447 1447 1447 1446 1445 1445 1445 1445 1445 1446 1446 1447 1448 1449 1450 1451 1452 1452 1452 1452 1452 1452 1452 1452 1452 1452 1452 1452 1453 1453 1452 1452 1451 1452 1452 1453 1454 1453 1453 1455 1455 1454 1453 1452 1453 1454 1456 1457 1459 1461
1464 1464 1463 1462 1460 1460 1459 1458 1457 1456 1455 1454 1453 1452 1451 1451 1450 1449 1448 1447 1446 1446 1446 1445 1445 1445 1445 1445 1444 1443 1442 1442 1441 1441 1442 1442 1442 1442 1442 1441 1441 1441 1441 1441 1441 1442 1443 1444 1444 1445 1445 1446 1446 1446 1446 1446 1446 1446 1446 1446 1446 1446 1446 1446 1446 1446 1446 1447 1448 1449 1449 1448 1447 1448 1448 1449 1448 1447 1445 1444 1445 1447 1450 1452 1455
1461 1461 1460 1458 1457 1457 1456 1455 1454 1454 1453 1452 1451 1450 1449 1449 1448 1446 1445 1444 1443 1442 1442 1442 1441 1441 1440 1440 1439 1439 1438 1438 1438 1438 1438 1438 1438 1438 1438 1437 1437 1437 1437 1437 1437 1437 1438 1438 1439 1439 1440 1440 1440 1439 1439 1439 1439 1439 1439 1439 1438 1438 1439 1439 1440 1441 1441 1442 1442 1443 1443 1442 1441 1441 1441 1442 1443 1442 1439 1437 1436 1438 1442 1446 1449
1459 1458 1456 1455 1454 1454 1453 1452 1452 1451 1450 1449 1448 1447 1447 1447 1446 1444 1442 1441 1439 1439 1438 1438 1438 1438 1437 1437 1436 1436 1436 1436 1435 1434 1434 1434 1433 1433 1433 1433 1433 1433 1433 1433 1433 1433 1433 1433 1433 1433 1433 1433 1434 1433 1433 1433 1433 1433 1433 1433 1432 1432 1432 1433 1434 1435 1435 1436 1436 1436 1436 1437 1437 1437 1436 1436 1437 1436 1436 1434 1432 1432 1436 1440 1444
1456 1455 1454 1453 1452 1451 1450 1449 1449 1448 1447 1446 1445 1445 1444 1443 1443 1441 1440 1438 1437 1436 1435 1435 1436 1436 1436 1435 1434 1433 1433 1432 1432 1431 1430 1430 1429 1429 1429 1429 1429 1429 1429 1429 1429 1428 1428 1428 1427 1427 1427 1427 1427 1427 1427 1427 1427 1427 1426 1426 1426 1426 1426 1427 1427 1428 1429 1431 1431 1431 1431 1433 1435 1434 1433 1432 1431 1430 1431 1430 1428 1429 1432 1437 1440
1453 1452 1451 1450 1449 1448 1447 1446 1446 1445 1444 1443 1442 1441 1441 1440 1439 1438 1437 1436 1434 1433 1433 1434 1434 1435 1435 1434 1433 1431 1430 1428 1428 1427 1427 1426 1426 1426 1425 1425 1425 1425 1425 1425 1424 1424 1423 1422 1422 1421 1421 1420 1420 1420 1420 1421 1421 1421 1420 1420 1420 1419 1420 1421 1421 1422 1423 1425 1426 1426 1427 1429 1430 1430 1429 1429 1427 1427 1427 1428 1428 1429 1432 1434 1436
1450 1450 1449 1448 1447 1446 1445 1444 1443 1442 1441 1440 1439 1438 1438 1437 1437 1436 1435 1433 1433 1432 1432 1432 1433 1434 1434 1432 1430 1428 1426 1424 1424 1423 1423 1423 1423 1423 1422 1422 1422 1421 1421 1421 1420 1419 1418 1418 1417 1416 1415 1415 1414 1414 1414 1414 1415 1415 1415 1415 1414 1414 1414 1415 1415 1416 1417 1419 1420 1421 1421 1422 1424 1424 1423 1424 1424 1425 1426 1426 1427 1429 1431 1432 1434
1448 1447 1446 1445 1444 1443 1442 1442 1441 1440 1439 1438 1437 1436 1435 1435 1434 1434 1433 1432 1431 1430 1430 1430 1430 1431 1431 1430 1427 1424 1422 1421 1421 1421 1421 1421 1421 1421 1420 1419 1419 1418 1418 1418 1417 1416 1416 1415 1413 1412 1411 1410 1409 1409 1409 1409 1409 1409 1410 1410 1410 1409 1409 1410 1410 1411 1412 1414 1415 1416 1417 1418 1419 1419 1419 1419 1421 1423 1423 1424 1425 1427 1431 1434 1435
1445 1445 1444 1443 1442 1441 1440 1439 1439 1438 1437 1436 1435 1434 1433 1433 1432 1432 1431 1430 1430 1428 1427 1427 1427 1427 1428 1427 1425 1422 1420 1419 1419 1419 1419 1419 1420 1419 1419 1418 1417 1417 1416 1416 1415 1415 1414 1413 1412 1411 1410 1408 1407 1407 1407 1407 1407 1407 1407 1407 1406 1406 1406 1406 1407 1409 1410 1411 1411 1412 1412 1413 1415 1417 1417 1417 1417 1419 1421 1423 1424 1428 1432 1435 1436